STARLINK-35210

Last updated on Mon Oct 20 2025 00:02:08 GMT+0000 (Coordinated Universal Time)

1 65903U 25224X 25292.25002315 -.01388280 00000+0 -62861-2 0 9992 2 65903 53.1509 313.3239 0001232 86.2822 118.2450 15.86076448 3135
UTC large
Height (km)
Speed (km/s)
/
Latitude / Longitude
Inclination (degrees)
Orbital Period (minutes)
Azimuth
Elevation
Range (km)
Doppler Factor

Next 0 passes for location: London (51.5072 / 0.1276)

Sorry there are no passes over London.